Regional Weather Roundup
Issued by NWS Kansas City/Pleasant Hill, MO

Home | Current Version | Previous Version | Graphics & Text | Print | Product List | Glossary Off
Versions: 1 2 3 4 5 6 7 8 9 10 11 12 13 14 15 16 17 18 19 20 21 22 23 24 25 26 27 28 29 30 31 32 33 34 35 36 37 38 39 40 41 42 43 44 45 46 47 48 49 50

000
ASUS43 KEAX 011911
RWREAX

WEATHER ROUNDUP FOR EASTERN KANSAS AND NORTHWEST MISSOURI
NATIONAL WEATHER SERVICE KANSAS CITY/PLEASANT HILL MO
200 PM CDT MON JUN 01 2015

KSZ040-057-103>105-MOZ028-029-037-043-012000-
...KANSAS CITY METROPOLITAN AREA...

CITY           SKY/WX    TMP DP  RH WIND       PRES   REMARKS
K.C. INTL      CLOUDY    63  55  75 SE7       30.17F
K.C. DOWNTOWN  CLOUDY    63  53  70 E6        30.16F
LEES SUMMIT    CLOUDY    62  54  74 NE7       30.18S
OLATHE - IXD   CLOUDY    63  54  72 E7        30.17F
OLATHE - OJC   CLOUDY    62  53  72 E7        30.16F
LAWRENCE       PTSUNNY   67  55  65 E12G20    30.15F

$$

MOZ001>008-011>017-020>025-030>033-038>040-044>046-053-054-012000-
...NORTHERN AND CENTRAL MISSOURI...

CITY           SKY/WX    TMP DP  RH WIND       PRES   REMARKS
ST. JOSEPH     CLOUDY    68  53  58 VRB7      30.16F
MOSBY          CLOUDY    63  54  72 SE6       30.17F
WHITEMAN AFB   CLOUDY    62  55  77 E6        30.16F
CLINTON        CLOUDY    63  55  77 E5        30.17F
SEDALIA        CLOUDY    62  54  74 NE3       30.18F
WARSAW         CLOUDY    61  54  77 CALM      30.17F
CHILLICOTHE      N/A     68  55  63 VRB3      30.17F
MOBERLY        CLOUDY    63  52  67 E8        30.19S
KIRKSVILLE     CLOUDY    63  55  75 E7        30.18F

$$

MOZ041-047>049-056>058-063>065-088>090-097-012000-
...EASTERN AND SOUTHERN MISSOURI...

CITY           SKY/WX    TMP DP  RH WIND       PRES   REMARKS
ST. LOUIS INTL CLOUDY    64  54  69 NE8       30.16S
SPIRIT OF STL  CLOUDY    63  55  75 NE5       30.15S
COLUMBIA       CLOUDY    63  54  72 NE8       30.16F
JEFFERSON CITY CLOUDY    61  53  75 E3        30.17F
ROLLA          CLOUDY    58  54  86 VRB6      30.15F
LEBANON        CLOUDY    61  54  77 NE3       30.17S
OSAGE BEACH    CLOUDY    61  54  77 NE3       30.17S
SPRINGFIELD    CLOUDY    68  56  65 NE7       30.13F
BRANSON        CLOUDY    68  57  68 CALM      30.14F
NEVADA         CLOUDY    64  55  72 NE6       30.17S
JOPLIN         PTSUNNY   71  58  63 VRB6      30.13F
WEST PLAINS    CLOUDY    64  56  75 NE6       30.15S
MALDEN         CLOUDY    68  59  73 N6        30.12S

$$

IAZ060-094-KSZ022-034>040-054-083-096-NEZ052-066-093-012000-
...KANSAS...SOUTHEAST NEBRASKA AND IOWA...

CITY           SKY/WX    TMP DP  RH WIND       PRES   REMARKS
TOPEKA         CLOUDY    69  55  60 E6        30.14F
MANHATTAN      MOSUNNY   74  56  53 SE14G20   30.11F
EMPORIA        CLOUDY    69  56  62 SE10      30.13F
CHANUTE        CLOUDY    68  57  68 E6        30.14S
WICHITA        PTSUNNY   72  59  63 SE13      30.10F
OMAHA          MOSUNNY   72  53  51 SE9       30.13F
LINCOLN        SUNNY     75  54  47 S12G22    30.11F
FALLS CITY     PTSUNNY   69  55  60 E9        30.14F
LAMONI         MOSUNNY   70  50  49 CALM      30.17F
DES MOINES     MOSUNNY   70  44  39 S10G16    30.16F

$$




USA.gov is the U.S. government's official web portal to all federal, state and local government web resources and services.